Location: Centerville
(32.8776°N, 96.6203°W)
Time: 23:08:53
(UTC+00:00)

ERS-1 Rocket - Pass Details

Date: 17 June 2021
Orbit: 752 x 758 km, 98.4° (Epoch: 01 August)

Event Time Altitude Azimuth Distance (km) Brightness Sun altitude
Exits shadow 04:04:37 64° 103° (ESE) 840 2.9 -24.2°
Maximum altitude 04:05:00 66° 75° (ENE) 824 3.0 -24.3°
Drops below altitude 10° 04:10:00 10° 354° (N) 2,292 6.3 -24.9°
Sets 04:12:19 0° 351° (N) 3,221 7.3 -25.2°
